Tracking 28790 objects as of 19-Apr-2024
HD Live streaming from Space Station
objects crossing your sky now

FENGYUN 1C DEB

Track FENGYUN 1C DEB now!
10-day predictions


NORAD ID: 32148
Int'l Code: 1999-025CSS
Perigee: 441.7 km
Apogee: 547.7 km
Inclination: 99.0 °
Period: 94.4 minutes
Semi major axis: 6865 km
RCS: 0.0096 m2 (small)
Launch date: May 10, 1999
Source: People's Republic of China (PRC)
Launch site: Taiyaun Space Center, China (TSC)

Note: This is SATELLITE DEBRIS
Your satellite tracking list
Your tracking list is empty




NASA's NSSDC Master Catalog

Two Line Element Set (TLE):
1 32148U 99025CSS 24109.53150223  .00127895  00000-0  44884-2 0  9992
2 32148  99.0408 219.3159 0077205 150.5156 210.0465 15.26068907904199
Source of the keplerian elements: AFSPC